Location: Unspecified
(33.6682°S, 0.0000°E)
Time: 05:07:04
(UTC+00:00)

Vanguard 1 - Pass Details

Date: 02 July 2019
Orbit: 653 x 3830 km, 34.3° (Epoch: 20 July)

Event Time Altitude Azimuth Distance (km) Brightness Sun altitude
Rises 18:58:07 0° 260° (W) 4,744 14.7 -23.3°
Reaches altitude 10° 19:01:00 10° 268° (W) 4,102 14.2 -23.9°
Maximum altitude 19:11:33 39° 331° (NNW) 3,435 13.0 -26.0°
Drops below altitude 10° 19:28:48 10° 31° (NNE) 6,547 14.0 -29.6°
Sets 19:35:05 0° 37° (NE) 7,824 14.4 -30.9°
